Dewpoint
57 57 57 57 57 58 57 57 58 58 58 58 58 58 57 57 56 57 57 60 63 64 63 62 63 65 65 65 65 65 65 65 65 66 66 66 65 66 66 66 66 66 65
59 59 59 60 60 60 59 59 58 58 58 57 57 55 55 54 54 54 54 54 60 60 61 61 62 62 62 62 63 64 65 64 64 64 65 66 65 65 65 65 65 66 66
60 60 60 58 58 58 54 51 46 48 48 47 45 47 51 51 52 52 52 53 53 57 59 53 54 58 60 62 62 62 63 63 64 64 65 64 65 65 65 65 65 65 65
58 55 45 44 46 46 45 43 44 44 43 43 42 42 42 42 43 44 45 45 44 39 46 51 52 51 53 55 57 58 59 62 62 63 62 63 63 64 64 65 65 65 65
44 43 43 42 43 43 43 41 42 42 41 41 37 37 40 37 41 41 40 33 32 36 39 46 50 51 49 48 50 52 53 53 56 56 58 59 59 61 62 63 63 64 65
40 41 40 38 40 41 39 37 37 36 37 37 31 36 33 37 40 36 33 26 33 34 36 35 38 39 44 41 44 46 46 47 47 49 51 55 56 57 58 59 60 60 62
35 35 37 35 35 36 33 31 34 33 34 34 35 30 34 34 31 29 22 34 31 33 29 26 28 24 24 39 40 42 46 47 48 48 51 52 53 55 56 57 58 58 59
31 29 31 32 30 32 29 28 29 31 33 32 33 32 30 32 32 24 31 29 31 28 26 24 22 22 25 26 32 42 42 43 45 49 48 50 51 52 53 54 54 54 57
27 28 27 27 28 30 28 26 27 28 29 32 33 31 28 29 26 31 25 31 28 26 26 23 25 25 25 30 35 35 40 41 45 47 48 49 50 51 53 54 54 55 55
24 25 25 25 25 28 24 26 25 27 29 29 33 32 30 30 29 26 31 23 27 26 24 26 26 27 30 30 31 36 35 39 42 45 46 47 48 48 48 49 50 52 53
23 23 22 23 23 25 23 23 24 24 26 29 30 32 28 29 29 26 20 22 25 24 24 25 26 28 28 24 24 28 35 37 40 42 43 43 43 46 47 47 47 47 47
25 21 20 19 19 21 21 21 23 22 25 28 27 30 28 25 25 22 20 21 22 20 24 23 27 28 24 24 27 32 33 35 38 41 43 43 43 43 43 44 47 48 47
20 18 17 16 17 18 19 19 22 23 25 24 24 23 24 27 25 22 23 21 19 21 21 23 25 23 22 22 22 30 32 33 36 39 42 42 40 39 41 42 42 42 43
17 15 14 14 14 15 15 17 21 23 20 21 17 18 23 22 23 24 22 22 21 19 21 20 22 22 22 22 27 30 23 34 34 35 37 38 36 37 37 40 40 40 41
12 12 12 12 13 14 14 16 19 16 17 17 18 20 20 19 23 25 25 24 23 21 19 20 21 21 24 24 24 24 25 30 32 33 34 34 35 36 35 35 35 36 37
11 11 12 12 13 14 14 14 16 17 16 17 17 18 18 20 21 22 24 26 24 22 21 20 20 21 21 21 27 25 23 30 32 32 33 34 34 36 33 34 33 34 36
11 11 12 13 13 14 14 14 14 14 14 16 18 18 20 20 22 22 23 23 24 24 21 21 21 21 22 25 24 24 26 24 24 32 34 34 34 33 32 32 32 37 35
12 12 14 14 15 16 16 15 14 14 15 17 19 21 20 21 22 22 22 22 22 21 21 20 22 24 25 25 24 26 23 23 27 34 32 32 31 30 31 31 32 32 33
13 14 15 16 16 18 18 16 14 14 17 19 21 21 22 22 22 22 22 21 22 21 24 26 27 26 24 28 28 25 27 28 27 27 28 28 28 29 30 31 33 32 31
14 15 16 17 18 17 17 16 15 18 19 20 22 23 22 22 22 22 21 21 22 23 23 22 23 28 26 26 29 23 18 20 21 20 24 26 29 30 31 30 29 30 30
15 17 17 17 17 16 12 17 18 19 19 20 22 22 22 25 27 25 21 21 22 23 27 30 26 28 26 20 18 19 18 21 23 23 22 23 26 26 24 27 27 29 30
15 15 15 15 15 13 23 25 23 18 19 20 21 21 22 24 24 28 28 28 27 25 25 28 28 23 19 19 20 19 22 25 22 24 24 25 23 22 23 24 29 30 32
14 14 14 14 13 14 23 24 25 18 20 21 21 21 21 20 25 23 28 29 29 32 32 27 22 21 21 20 23 27 26 24 23 23 22 21 22 21 24 23 28 30 30
13 13 13 14 14 12 23 23 25 19 20 21 21 21 21 23 26 25 23 25 30 30 25 22 21 21 25 26 22 20 21 23 24 22 22 20 22 21 21 22 28 29 29
13 13 13 13 12 12 22 24 23 20 20 20 21 22 25 24 27 27 25 30 26 24 22 25 29 28 25 25 24 22 24 22 19 20 21 21 22 21 22 22 23 28 30
13 14 12 12 16 12 22 25 24 21 21 20 24 26 27 23 26 31 26 22 20 17 22 25 17 18 20 21 26 23 24 20 20 19 20 21 21 22 21 23 25 27 28
Lifted_Index
2 2 2 2 2 2 2 3 3 3 4 4 4 4 4 5 5 5 5 5 5 4 4 4 3 2 2 2 2 2 2 2 2 2 2 2 2 2 2 2 2 2 2
1 2 2 2 2 2 3 3 3 4 4 5 5 6 6 7 7 7 7 7 6 6 5 5 4 3 3 3 3 2 2 2 2 2 2 2 2 2 2 2 2 1 1
1 1 2 2 2 3 3 4 5 6 7 7 8 9 9 10 10 10 10 10 9 8 7 7 6 5 5 5 4 4 3 3 3 3 2 2 2 2 2 1 1 1 1
1 2 2 3 4 5 6 7 8 9 10 10 11 11 12 12 12 12 12 11 11 10 9 8 8 8 8 8 7 6 6 5 5 4 4 3 3 3 2 1 1 1 1
2 3 5 6 7 8 10 10 11 12 12 12 13 13 14 14 14 14 13 12 12 11 11 11 11 11 11 11 11 10 9 9 8 7 7 6 5 4 3 2 2 1 1
6 7 9 10 11 11 12 12 12 13 13 14 14 14 15 15 15 14 14 14 14 14 14 14 14 15 15 15 14 14 13 12 11 10 9 8 7 6 4 3 3 2 2
10 10 11 12 12 12 12 13 13 13 14 15 15 14 14 15 15 16 16 16 16 16 16 17 17 18 18 18 17 16 15 14 13 12 11 9 8 7 6 5 4 4 3
12 12 12 12 12 12 13 13 14 14 15 16 16 15 14 14 15 17 17 17 18 18 18 19 20 20 19 19 18 17 16 16 14 13 11 10 9 8 7 6 6 5 5
11 11 11 12 12 12 13 14 15 15 15 16 16 16 16 15 16 17 18 19 19 19 20 21 21 20 20 19 18 18 17 16 15 14 12 11 11 10 9 8 7 7 6
11 11 11 11 12 13 14 15 16 17 16 16 17 18 18 18 18 18 19 19 20 21 21 21 21 20 20 19 19 19 18 17 16 15 14 13 13 12 11 10 10 9 8
11 11 11 12 13 15 16 17 17 18 18 18 18 19 19 20 19 19 19 19 21 21 22 21 21 20 20 20 20 20 19 19 18 17 16 15 15 14 13 13 12 11 10
10 11 12 13 15 16 17 18 19 19 19 19 20 20 20 20 20 20 19 19 20 22 22 22 21 21 21 21 21 21 20 19 18 17 16 16 15 15 14 14 13 12 11
10 11 13 15 17 18 19 19 20 20 20 20 21 21 21 21 21 21 21 20 20 21 22 22 22 22 22 22 22 21 21 20 19 17 16 15 14 14 13 13 12 12 11
11 13 15 17 18 19 20 20 20 20 20 21 21 21 22 22 22 22 22 21 20 20 21 21 22 22 22 22 21 21 20 19 18 17 15 14 13 12 12 12 12 11 11
13 14 16 18 19 20 20 20 20 20 21 21 21 21 22 22 22 22 22 21 21 19 20 21 22 22 22 21 20 19 18 17 16 15 14 13 12 12 11 12 11 11 11
15 16 18 19 20 20 20 20 21 21 21 21 21 21 22 22 23 22 22 22 21 20 20 21 22 21 20 19 18 17 16 15 14 13 13 12 11 11 12 12 12 11 11
16 18 19 20 20 20 20 20 21 21 21 21 21 22 22 23 23 23 22 22 21 20 20 20 20 19 18 17 16 15 14 14 13 13 12 12 11 11 12 12 11 11 10
18 19 20 20 20 20 20 20 21 21 21 21 21 22 23 23 23 22 22 21 20 19 18 17 17 16 15 15 14 14 14 13 13 12 12 12 12 11 11 11 11 10 10
19 20 20 20 20 20 20 20 21 21 21 22 22 22 23 23 22 22 21 19 18 17 15 15 14 14 14 14 14 14 14 14 13 13 12 12 12 12 11 11 11 11 11
20 20 20 20 20 20 20 21 21 22 22 22 22 22 22 22 21 20 19 17 16 15 14 13 13 13 13 14 14 15 15 14 13 13 13 12 12 12 12 12 12 12 12
19 19 19 20 20 20 21 21 22 22 22 22 21 21 21 21 19 18 16 15 14 13 13 12 12 13 14 14 14 15 14 14 13 13 13 12 12 12 12 12 12 12 11
19 19 19 20 20 21 21 22 21 21 21 21 21 20 20 19 17 15 14 13 13 12 12 12 13 13 14 14 15 14 14 13 13 12 12 12 12 12 12 12 12 11 10
19 19 19 20 21 21 22 22 21 21 21 20 20 19 18 17 15 14 13 13 12 12 12 12 13 14 14 14 14 14 14 14 13 13 12 12 12 12 12 12 11 10 9
19 19 20 20 21 21 22 22 21 20 20 20 19 18 16 15 15 14 13 13 13 12 12 13 13 14 14 15 15 15 15 15 14 13 13 12 12 12 12 11 11 10 10
19 19 20 21 21 22 22 21 21 20 20 19 17 16 15 15 14 13 13 13 13 13 13 13 13 14 15 15 15 16 16 15 15 14 13 13 12 12 11 11 11 10 10
19 20 20 21 22 22 22 21 20 20 19 18 16 15 15 14 14 12 12 13 13 14 14 14 14 14 15 15 16 16 16 16 15 14 14 13 12 12 11 11 11 10 10